Location: El Gallo
(32.4380°N, 116.9347°W)
Time: 19:59:51
(UTC+00:00)

ASTRO E2 - Pass Details

Date: 01 October 2022
Orbit: 493 x 499 km, 31.4° (Epoch: 01 December)

Event Time Altitude Azimuth Distance (km) Brightness Sun altitude
Exits shadow 11:22:53 21° 100° (E) 1,145 5.0 -29.8°
Drops below altitude 10° 11:24:18 10° 97° (E) 1,690 6.1 -29.5°
Enters shadow 12:22:11 -68° 284° (WNW) 12,360 9.6 -17.6°
